User: anonymous   Login
Location: Unspecified
(0.0000°N, 0.0000°E)
Time: 19:12:18
(UTC+00:00)
Language:

USA 82 - Orbit

View from above orbital plane
View from above orbital plane
View from above satellite
View from above satellite

Ground track
Ground track

The orbit data is extracted from the following two-line orbital elements,

1 22009U 92037A   21135.90246343 -.00000149  00000-0  00000-0 0  9992
2 22009  13.0058  22.5128 0013433   5.8839 180.2245  0.98813878  6784
Epoch (UTC): 15 May 2021 21:39:32
Eccentricity: 0.0013433
inclination: 13.0058°
perigee height: 36143 km
apogee height: 36257 km
right ascension of ascending node: 22.5128°
argument of perigee: 5.8839°
revolutions per day: 0.98813878
mean anomaly at epoch: 180.2245°
orbit number at epoch: 678

The dashed part of the orbit path shows where the satellite is in the earth's shadow,  

DLR